Terug naar catalogus

STARLINK-11080

ActiefCommunicatieVLEO
NORAD 60727·PAYLOAD·🇺🇸 United States

Gelanceerd Aug 28, 2024 vanaf Cape Canaveral Space Force Station

Loading…

Volgende Passages (komende 24 uur)

TLE

VersSource: CelesTrak SupGP

Epoch: Sep 14, 2026, 22:53 UTC

1 60727C 24152H   26257.95395833  .00076839  00000+0  63269-3 0  2571
2 60727  53.1574 263.1678 0001149  96.2573 214.8195 15.69680680    19

Volg STARLINK-11080 in realtime met AllMySat

Download on the App Store